Lexington Weather

Lexington, Massachusetts, USA

47°F
10/22/2019 2:29am 
  • Lexington Conditions: Mostly cloudy
  • Temperature: 46.6°F / 8.1°CWarmer 1.3°F than last hour.
  • Dew Point: 45.0°FIncreased 1.8°Fsince last hour.
  • Relative Humidity: 94%Increased 2.0% since last hour.
  • Wind: Calm, 10-min avg: Calm, gust: None
  • Barometer: 30.12 in Steady
  • Visibility: 9 miles
  • Rain Today: 0.00 in
  •   

Regional Weather Roundup
for Boston, MA

        
000
ASUS41 KBOX 190700
RWRBOX

REGIONAL WEATHER ROUNDUP
NATIONAL WEATHER SERVICE BOSTON/NORTON MA
300 AM EDT SAT OCT 19 2019

NOTE:  "FAIR" INDICATES FEW OR NO CLOUDS BELOW 12,000 FEET WITH NO 
SIGNIFICANT WEATHER AND/OR OBSTRUCTIONS TO VISIBILITY.

MAZALL-190800-
EASTERN MASSACHUSETTS
  
CITY           SKY/WX    TMP DP  RH WIND       PRES   REMARKS
BOSTON         FAIR      47  34  60 W8        29.96R                  
BEVERLY        FAIR      42  34  73 W3        29.94R                  
LAWRENCE       FAIR      39  34  82 S3        29.96S                  
BEDFORD        FAIR      41  33  73 SW6       29.95S                  
BLUE HILL      NOT AVBL                                               
NORWOOD        FAIR      38  32  79 CALM      29.96S                  
MARSHFIELD     NOT AVBL                                               
PLYMOUTH       FAIR      41  36  82 W7        29.95S                  
TAUNTON        FAIR      41  35  79 W5        29.96S                  
NEW BEDFORD    FAIR      42  35  76 W5        29.96R                  
$$

MAZALL-190800-
CAPE COD AND THE ISLANDS
  
CITY           SKY/WX    TMP DP  RH WIND       PRES   REMARKS
FALMOUTH       NOT AVBL                                               
HYANNIS        NOT AVBL                                               
CHATHAM        NOT AVBL                                               
PROVINCETOWN   FAIR      48  39  71 NW16G23     N/A                   
NANTUCKET      FAIR      49  38  65 NW14      29.94R                  
MARTHAS VNYRD  FAIR      46  38  73 NW7       29.95S                  
$$
 
MAZALL-190800-
CENTRAL AND WESTERN MASSACHUSETTS
  
CITY           SKY/WX    TMP DP  RH WIND       PRES   REMARKS
WORCESTER      FAIR      39  33  79 NW8       29.95S                  
FITCHBURG      FAIR      39  33  79 CALM      29.97S                  
ORANGE         FAIR      37  33  85 CALM      29.98R                  
SPRINGFIELD    FAIR      41  33  72 W3        29.97S                  
WESTFIELD      FAIR      35  32  88 CALM      29.99R                  
NORTH ADAMS    FAIR      39  31  72 W9        30.01R                  
PITTSFIELD     FAIR      40  32  73 VRB3      29.97S                  
$$
 
RIZALL-190800-
RHODE ISLAND
  
CITY           SKY/WX    TMP DP  RH WIND       PRES   REMARKS
PROVIDENCE     FAIR      41  37  86 W6        29.98S                  
NEWPORT        FAIR      46  36  68 NW8       29.97R                  
BLOCK ISLAND   FAIR      47  35  63 N8        30.00R                  
SMITHFIELD     FAIR     N/A N/A N/A W5        29.97S                  
WESTERLY       FAIR      44  40  85 CALM      30.00R                  
$$
 
CTZALL-190800-
CONNECTICUT
  
CITY           SKY/WX    TMP DP  RH WIND       PRES   REMARKS
BRADLEY INTL   FAIR      42  33  70 W5        30.00R                  
HARTFORD       FAIR      44  34  67 CALM      30.01R                  
BRIDGEPORT     FAIR      44  34  67 NW5       30.02S                  
DANBURY        FAIR      39  32  76 CALM      30.02S                  
GROTON         NOT AVBL                                               
NEW HAVEN      FAIR      47  36  65 NW5       30.02R                  
CHESTER        FAIR      41  36  81 CALM      30.00S                  
MERIDEN        FAIR      37  34  89 CALM      30.01R                  
WILLIMANTIC    FAIR      43  35  73 NW6       30.00S                  
OXFORD         FAIR      40  34  79 NE3       30.00S                  
$$

MEZ002-015-021-024-NHZ003-005-008-011-012-014-VTZ005-008-190800-
NORTHERN NEW ENGLAND
  
CITY           SKY/WX    TMP DP  RH WIND       PRES   REMARKS
PORTLAND ME    FAIR      40  34  79 SW5       29.90R                  
BANGOR ME      CLOUDY    47  38  71 NW8       29.82R                  
CONCORD NH     FAIR      41  33  73 N5        29.94S                  
MANCHESTER NH  FAIR      45  34  65 NW8       29.93S                  
NASHUA NH      FAIR      39  36  89 W5        29.95F                  
PORTSMOUTH NH  CLEAR     43  35  73 SW3       29.91R                  
JAFFREY NH     FAIR      40  32  73 CALM      29.95R                  
KEENE NH       MOCLDY    42  33  70 CALM      29.97S                  
BURLINGTON VT  CLOUDY    45  33  63 W6        30.00S                  
MT. WASHINGTON SNOW      21  21 100 W62G68      N/A  VSB 1/16WCI  -3  
$$

NYZ052-076-190800-
EASTERN NEW YORK
  
CITY           SKY/WX    TMP DP  RH WIND       PRES   REMARKS
ALBANY         CLOUDY    44  37  76 CALM      30.04S                  
NEW YORK CITY  FAIR      48  35  60 N7        30.03R                  
$$
 
ANZALL-190800-
MARINE OBSERVATIONS
  
STATION/POSITION TIME  TEMP    WIND        PRES    VSBY  WAVE
                       AIR SEA DIR/SP/G                  HT/PER
                 (UTC) (F)     (DEG/KT/KT) (MB)    (MI)  (FT/S)
BOSTON BUOY      0550   49 56  310/ 16/ 19 1012.7          2/ 3
BUZZARDS BAY     0600   48     320/ 18/ 19 1014.9R
NANTUCKET SOUND  0640      57              1013.9
MASS BAY-STELLWA 0604   49 56  300/ 17/ 21 1012.7R  1 7/8  2/ 3
ISLE OF SHOALS   0600   47     280/ 15/ 18 1012.4R
S OF BLOCK IS    0630      61                N/A           4/ 4
$$

......................KEY.........................
  SKY/WX - SKY CONDITION/PRESENT WEATHER
  TMP    - TEMPERATURE IN FAHRENHEIT
  DWPT   - DEWPOINT IN FAHRENHEIT
  RH     - RELATIVE HUMIDITY IN PERCENT
  WIND   - DIRECTION AND SPEED IN MPH
  PRES   - MEAN SEA LEVEL PRESSURE IN INCHES OF HG
  WCI    - WIND CHILL INDEX
  VSB    - VISIBILITY IN MILES
  HX     - HEAT INDEX
  TC     - TEMPERATURE IN CELSIUS
  VRB    - VARIABLE WIND DIRECTION
  N/A    - NOT AVAILABLE
  
      

Other recent Regional Weather Roundups

Tue Oct 22, 2:10am

Tue Oct 22, 2:00am

Tue Oct 22, 1:10am

Tue Oct 22, 1:00am

Tue Oct 22, 12:10am

Tue Oct 22, 12:00am

Mon Oct 21, 11:10pm

Mon Oct 21, 11:00pm

Mon Oct 21, 10:10pm

Mon Oct 21, 10:01pm

Mon Oct 21, 9:10pm

Mon Oct 21, 9:00pm

Mon Oct 21, 8:10pm

Mon Oct 21, 8:00pm

Mon Oct 21, 7:10pm

Mon Oct 21, 7:01pm

Mon Oct 21, 6:10pm

Mon Oct 21, 6:01pm

Mon Oct 21, 5:10pm

Mon Oct 21, 5:01pm

Mon Oct 21, 4:10pm

Mon Oct 21, 4:00pm

Mon Oct 21, 3:10pm

Mon Oct 21, 3:01pm

Mon Oct 21, 2:10pm

Mon Oct 21, 2:00pm

Mon Oct 21, 1:10pm

Mon Oct 21, 1:01pm

Mon Oct 21, 12:10pm

Mon Oct 21, 12:00pm

Mon Oct 21, 11:10am

Mon Oct 21, 11:00am

Mon Oct 21, 10:10am

Mon Oct 21, 10:00am

Mon Oct 21, 9:10am

Mon Oct 21, 9:00am

Mon Oct 21, 7:10am

Mon Oct 21, 7:00am

Mon Oct 21, 6:10am

Mon Oct 21, 6:00am

Mon Oct 21, 5:10am

Mon Oct 21, 5:00am

Mon Oct 21, 4:10am

Mon Oct 21, 4:00am

Mon Oct 21, 3:10am

Mon Oct 21, 3:00am

Mon Oct 21, 2:10am

Mon Oct 21, 2:01am

Mon Oct 21, 1:10am

Mon Oct 21, 1:00am

Mon Oct 21, 12:10am

Mon Oct 21, 12:00am

Sun Oct 20, 11:10pm

Sun Oct 20, 11:00pm

Sun Oct 20, 10:10pm

Sun Oct 20, 10:00pm

Sun Oct 20, 9:10pm

Sun Oct 20, 9:01pm

Sun Oct 20, 8:10pm

Sun Oct 20, 8:00pm

Sun Oct 20, 7:10pm

Sun Oct 20, 7:01pm

Sun Oct 20, 6:10pm

Sun Oct 20, 6:00pm

Sun Oct 20, 5:10pm

Sun Oct 20, 5:00pm

Sun Oct 20, 4:10pm

Sun Oct 20, 4:00pm

Sun Oct 20, 3:10pm

Sun Oct 20, 3:00pm

Sun Oct 20, 2:10pm

Sun Oct 20, 2:01pm

Sun Oct 20, 1:10pm

Sun Oct 20, 1:01pm

Sun Oct 20, 12:10pm

Sun Oct 20, 12:00pm

Sun Oct 20, 11:10am

Sun Oct 20, 11:00am

Sun Oct 20, 10:10am

Sun Oct 20, 10:00am

Sun Oct 20, 9:10am

Sun Oct 20, 9:00am

Sun Oct 20, 8:10am

Sun Oct 20, 8:00am

Sun Oct 20, 7:10am

Sun Oct 20, 7:00am

Sun Oct 20, 6:10am

Sun Oct 20, 6:00am

Sun Oct 20, 5:10am

Sun Oct 20, 5:00am

Sun Oct 20, 4:10am

Sun Oct 20, 4:00am

Sun Oct 20, 3:10am

Sun Oct 20, 3:00am

Sun Oct 20, 2:10am

Sun Oct 20, 2:00am

Sun Oct 20, 1:10am

Sun Oct 20, 1:00am

Sun Oct 20, 12:10am

Sun Oct 20, 12:00am

Sat Oct 19, 11:10pm

Sat Oct 19, 11:00pm

Sat Oct 19, 10:10pm

Sat Oct 19, 10:00pm

Sat Oct 19, 9:10pm

Sat Oct 19, 9:00pm

Sat Oct 19, 8:10pm

Sat Oct 19, 8:00pm

Sat Oct 19, 7:10pm

Sat Oct 19, 7:00pm

Sat Oct 19, 6:10pm

Sat Oct 19, 6:00pm

Sat Oct 19, 5:10pm

Sat Oct 19, 5:00pm

Sat Oct 19, 4:10pm

Sat Oct 19, 4:00pm

Sat Oct 19, 3:10pm

Sat Oct 19, 3:01pm

Sat Oct 19, 2:10pm

Sat Oct 19, 2:00pm

Sat Oct 19, 1:10pm

Sat Oct 19, 1:01pm

Sat Oct 19, 12:10pm

Sat Oct 19, 12:00pm

Sat Oct 19, 11:10am

Sat Oct 19, 11:01am

Sat Oct 19, 10:10am

Sat Oct 19, 10:00am

Sat Oct 19, 9:10am

Sat Oct 19, 9:00am

Sat Oct 19, 8:10am

Sat Oct 19, 8:00am

Sat Oct 19, 7:10am

Sat Oct 19, 7:00am

Sat Oct 19, 6:10am

Sat Oct 19, 6:00am

Sat Oct 19, 5:10am

Sat Oct 19, 5:00am

Sat Oct 19, 4:10am

Sat Oct 19, 4:00am

Sat Oct 19, 3:10am

Meta data:

ID: 1764d30e-b7d7-46a7-a457-82d8b472c9ce
Link: https://api.weather.gov/products/1764d30e-b7d7-46a7-a457-82d8b472c9ce